Location: Chervonnoye
(48.6000°N, 34.4000°E)
Time: 12:43:04
(UTC+00:00)

deb Kosmos-2237 - Pass Details

Date: 19 June 2021
Orbit: 850 x 1045 km, 71.0° (Epoch: 25 July)

Event Time Altitude Azimuth Distance (km) Brightness Sun altitude
Rises 22:13:11 0° 290° (WNW) 3,667 ? -17.7°
Reaches altitude 10° 22:17:54 10° 322° (NW) 2,771 ? -17.6°
Maximum altitude 22:20:05 12° 342° (NNW) 2,667 ? -17.5°
Drops below altitude 10° 22:22:19 10° 2° (N) 2,812 ? -17.5°
Sets 22:27:14 0° 34° (NNE) 3,799 ? -17.3°
